sat.trackr.live / text

‹ back to catalog

STARLINK-32944

NORAD 63022 · 2025-032T

PAYLOAD ACTIVE UNKNOWN

§ Identity

Operator
Country
US
Launch date
2025-02-15
Launch site
AFETR
Launch vehicle
Mass (kg)
RCS (m²)

Purposes: comms

External: N2YO · Heavens-Above · Gunter

§ Orbital elements

Epoch: 2026-09-21T02:51:51.901344Z

Period
94.27 min
Inclination
43.0007°
Eccentricity
0.0000844
Mean motion
15.27590378 rev/d
Perigee alt
482.4 km
Apogee alt
483.6 km
Semi-major
6,861.2 km
B*
4.3422e-4
RAAN
312.7837°
Arg perigee
277.1099°
Mean anomaly
82.9656°
Rev number
9,050

§ Raw data

STARLINK-329441 63022U 25032T   26264.11935071  .00011709  00000+0  43422-3 0  99972 63022  43.0007 312.7837 0000844 277.1099  82.9656 15.27590378 90508

JSON: /api/v1/satellites/63022 · /tle

For live sub-satellite position, see the globe view (requires WebGL).

§ Visibility from observer

Set your observer location to see the next 7 days of passes ≥ 10°. The values pass through the URL so the page stays shareable.

No JS? Fill the form by hand. The geolocation button needs JavaScript.